Time,TemperatureF,DewpointF,PressureIn,WindDirection,WindDirectionDegrees,WindSpeedMPH,WindSpeedGustMPH,Humidity,HourlyPrecipIn,Conditions,Clouds,dailyrainin,SoftwareType,DateUTC
2013-05-12 00:00:00,60.4,59.3,29.67,SE,130,0.0,0.0,96,0.00,,,0.77,Wunderground v.1.13,2013-05-12 04:00:00,
2013-05-12 00:05:00,60.4,59.3,29.67,SE,130,0.0,0.0,96,0.00,,,0.00,Wunderground v.1.13,2013-05-12 04:05:00,
2013-05-12 00:10:00,60.2,59.1,29.67,SE,130,0.0,0.0,96,0.00,,,0.00,Wunderground v.1.13,2013-05-12 04:10:00,
2013-05-12 00:15:00,60.1,59.0,29.67,SE,130,0.0,0.0,96,0.00,,,0.00,Wunderground v.1.13,2013-05-12 04:15:00,
2013-05-12 00:20:00,60.1,59.0,29.67,SE,130,0.0,0.0,96,0.00,,,0.00,Wunderground v.1.13,2013-05-12 04:20:00,
2013-05-12 00:25:00,60.1,59.0,29.67,SE,130,0.0,0.0,96,0.00,,,0.00,Wunderground v.1.13,2013-05-12 04:25:00,
2013-05-12 00:30:00,60.1,59.0,29.66,SE,130,0.0,0.0,96,0.00,,,0.00,Wunderground v.1.13,2013-05-12 04:30:00,
2013-05-12 00:35:00,60.2,59.1,29.66,SE,130,0.0,0.0,96,0.00,,,0.00,Wunderground v.1.13,2013-05-12 04:35:00,
2013-05-12 00:40:00,60.2,59.1,29.66,SE,130,0.0,0.0,96,0.00,,,0.00,Wunderground v.1.13,2013-05-12 04:40:00,
2013-05-12 00:45:00,60.4,59.3,29.66,SE,137,0.0,0.0,96,0.00,,,0.00,Wunderground v.1.13,2013-05-12 04:45:00,
2013-05-12 00:50:00,60.5,59.4,29.66,SE,137,0.0,0.0,96,0.00,,,0.00,Wunderground v.1.13,2013-05-12 04:50:00,
2013-05-12 00:55:00,60.7,59.6,29.66,SE,137,0.0,0.0,96,0.00,,,0.00,Wunderground v.1.13,2013-05-12 04:55:00,
2013-05-12 01:00:00,60.9,59.8,29.66,SE,137,0.0,0.0,96,0.00,,,0.00,Wunderground v.1.13,2013-05-12 05:00:00,
2013-05-12 01:05:00,60.9,59.8,29.66,SE,137,0.0,0.0,96,0.00,,,0.00,Wunderground v.1.13,2013-05-12 05:05:00,
2013-05-12 01:10:00,60.9,59.8,29.66,SE,137,0.0,0.0,96,0.00,,,0.00,Wunderground v.1.13,2013-05-12 05:10:00,
2013-05-12 01:15:00,60.9,59.8,29.66,SE,137,0.0,0.0,96,0.00,,,0.00,Wunderground v.1.13,2013-05-12 05:15:00,
2013-05-12 01:25:00,60.7,59.6,29.66,SE,137,0.0,0.0,96,0.00,,,0.00,Wunderground v.1.13,2013-05-12 05:25:00,
2013-05-12 01:30:00,60.7,59.6,29.64,SE,138,0.0,0.0,96,0.00,,,0.00,Wunderground v.1.13,2013-05-12 05:30:00,
2013-05-12 01:40:00,60.7,59.6,29.64,SE,138,0.0,0.0,96,0.00,,,0.00,Wunderground v.1.13,2013-05-12 05:40:00,
2013-05-12 01:45:00,60.7,59.6,29.64,SE,137,0.0,0.0,96,0.00,,,0.00,Wunderground v.1.13,2013-05-12 05:45:00,
2013-05-12 01:50:00,60.5,59.4,29.64,SE,137,0.0,0.0,96,0.00,,,0.00,Wunderground v.1.13,2013-05-12 05:50:00,
2013-05-12 01:55:00,60.4,59.3,29.64,SE,137,0.0,0.0,96,0.00,,,0.00,Wunderground v.1.13,2013-05-12 05:55:00,
2013-05-12 02:05:00,60.2,59.1,29.64,SE,137,0.0,0.0,96,0.00,,,0.00,Wunderground v.1.13,2013-05-12 06:05:00,
2013-05-12 02:10:00,60.1,59.0,29.64,SE,137,0.0,0.0,96,0.00,,,0.00,Wunderground v.1.13,2013-05-12 06:10:00,
2013-05-12 02:15:00,60.1,59.0,29.64,SE,137,0.0,0.0,96,0.00,,,0.00,Wunderground v.1.13,2013-05-12 06:15:00,
2013-05-12 02:25:00,59.9,58.8,29.64,SE,137,0.0,0.0,96,0.00,,,0.00,Wunderground v.1.13,2013-05-12 06:25:00,
2013-05-12 02:30:00,59.9,58.8,29.63,SE,137,0.0,0.0,96,0.00,,,0.00,Wunderground v.1.13,2013-05-12 06:30:00,
2013-05-12 02:35:00,59.8,58.7,29.63,SE,137,0.0,0.0,96,0.00,,,0.00,Wunderground v.1.13,2013-05-12 06:35:00,
2013-05-12 02:45:00,59.6,58.5,29.62,SE,138,0.0,0.0,96,0.00,,,0.00,Wunderground v.1.13,2013-05-12 06:45:00,
2013-05-12 02:50:00,59.5,58.4,29.62,SE,137,0.0,0.0,96,0.00,,,0.00,Wunderground v.1.13,2013-05-12 06:50:00,
2013-05-12 02:55:00,59.3,57.9,29.62,SE,137,0.0,0.0,95,0.00,,,0.00,Wunderground v.1.13,2013-05-12 06:55:00,
2013-05-12 03:05:00,58.9,57.5,29.62,SE,137,0.0,0.0,95,0.00,,,0.00,Wunderground v.1.13,2013-05-12 07:05:00,
2013-05-12 03:10:00,58.7,57.3,29.62,SE,137,0.0,0.0,95,0.00,,,0.00,Wunderground v.1.13,2013-05-12 07:10:00,
2013-05-12 03:15:00,58.7,57.3,29.63,SE,137,0.0,0.0,95,0.00,,,0.00,Wunderground v.1.13,2013-05-12 07:15:00,
2013-05-12 03:25:00,58.7,57.0,29.63,SE,137,0.0,0.0,94,0.00,,,0.00,Wunderground v.1.13,2013-05-12 07:25:00,
2013-05-12 03:30:00,58.7,57.0,29.64,SE,137,0.0,0.0,94,0.00,,,0.00,Wunderground v.1.13,2013-05-12 07:30:00,
2013-05-12 03:40:00,58.7,56.4,29.64,SE,137,0.0,0.0,92,0.00,,,0.00,Wunderground v.1.13,2013-05-12 07:40:00,
2013-05-12 03:45:00,58.7,56.1,29.63,SE,137,0.0,0.0,91,0.00,,,0.00,Wunderground v.1.13,2013-05-12 07:45:00,
2013-05-12 03:55:00,58.9,56.0,29.63,SE,137,0.0,0.0,90,0.00,,,0.00,Wunderground v.1.13,2013-05-12 07:55:00,
2013-05-12 04:00:00,58.9,55.7,29.63,SE,137,0.0,0.0,89,0.00,,,0.00,Wunderground v.1.13,2013-05-12 08:00:00,
2013-05-12 04:10:00,58.9,55.4,29.63,South,189,0.0,0.0,88,0.00,,,0.00,Wunderground v.1.13,2013-05-12 08:10:00,
2013-05-12 04:15:00,58.9,55.0,29.64,South,189,0.0,0.0,87,0.00,,,0.00,Wunderground v.1.13,2013-05-12 08:15:00,
2013-05-12 04:20:00,58.9,54.7,29.64,South,189,0.0,0.0,86,0.00,,,0.00,Wunderground v.1.13,2013-05-12 08:20:00,
2013-05-12 04:25:00,59.0,54.8,29.64,South,189,0.0,0.0,86,0.00,,,0.00,Wunderground v.1.13,2013-05-12 08:25:00,
2013-05-12 04:30:00,58.9,54.7,29.63,South,189,0.0,0.0,86,0.00,,,0.00,Wunderground v.1.13,2013-05-12 08:30:00,
2013-05-12 04:40:00,58.7,54.8,29.63,South,189,0.0,0.0,87,0.00,,,0.00,Wunderground v.1.13,2013-05-12 08:40:00,
2013-05-12 04:45:00,58.7,54.8,29.64,South,189,0.0,0.0,87,0.00,,,0.00,Wunderground v.1.13,2013-05-12 08:45:00,
2013-05-12 04:55:00,58.4,54.9,29.64,South,189,0.0,0.0,88,0.00,,,0.00,Wunderground v.1.13,2013-05-12 08:55:00,
2013-05-12 05:00:00,58.4,54.9,29.65,South,189,0.0,0.0,88,0.00,,,0.00,Wunderground v.1.13,2013-05-12 09:00:00,
2013-05-12 05:05:00,58.3,55.1,29.65,South,189,0.0,0.0,89,0.00,,,0.00,Wunderground v.1.13,2013-05-12 09:05:00,
2013-05-12 05:10:00,58.3,55.1,29.65,South,189,0.0,0.0,89,0.00,,,0.00,Wunderground v.1.13,2013-05-12 09:10:00,
2013-05-12 05:20:00,58.0,55.4,29.63,South,189,0.0,0.0,91,0.00,,,0.00,Wunderground v.1.13,2013-05-12 09:20:00,
2013-05-12 05:25:00,58.0,55.7,29.63,South,189,0.0,0.0,92,0.00,,,0.00,Wunderground v.1.13,2013-05-12 09:25:00,
2013-05-12 05:30:00,57.8,55.5,29.66,South,189,0.0,0.0,92,0.00,,,0.00,Wunderground v.1.13,2013-05-12 09:30:00,
2013-05-12 05:40:00,57.6,55.3,29.66,South,189,0.0,0.0,92,0.00,,,0.00,Wunderground v.1.13,2013-05-12 09:40:00,
2013-05-12 05:45:00,57.6,55.3,29.65,South,189,0.0,0.0,92,0.00,,,0.01,Wunderground v.1.13,2013-05-12 09:45:00,
2013-05-12 05:50:00,57.6,55.6,29.65,South,189,0.0,0.0,93,0.25,,,0.04,Wunderground v.1.13,2013-05-12 09:50:00,
2013-05-12 06:00:00,57.5,55.5,29.66,South,189,0.0,0.0,93,0.40,,,0.11,Wunderground v.1.13,2013-05-12 10:00:00,
2013-05-12 06:05:00,57.5,55.5,29.66,South,189,0.0,0.0,93,0.23,,,0.13,Wunderground v.1.13,2013-05-12 10:05:00,
2013-05-12 06:10:00,57.2,55.2,29.66,South,189,0.0,0.0,93,0.08,,,0.13,Wunderground v.1.13,2013-05-12 10:10:00,
2013-05-12 06:20:00,56.6,54.6,29.65,South,189,0.0,0.0,93,0.00,,,0.13,Wunderground v.1.13,2013-05-12 10:20:00,
2013-05-12 06:25:00,56.3,54.3,29.65,South,189,0.0,0.0,93,0.00,,,0.13,Wunderground v.1.13,2013-05-12 10:25:00,
2013-05-12 06:30:00,56.3,54.3,29.66,South,189,0.0,0.0,93,0.00,,,0.13,Wunderground v.1.13,2013-05-12 10:30:00,
2013-05-12 06:40:00,56.2,54.5,29.66,South,189,0.0,0.0,94,0.00,,,0.13,Wunderground v.1.13,2013-05-12 10:40:00,
2013-05-12 06:45:00,56.2,54.5,29.67,South,189,0.0,0.0,94,0.00,,,0.13,Wunderground v.1.13,2013-05-12 10:45:00,
2013-05-12 06:55:00,56.0,54.3,29.67,South,189,0.0,0.0,94,0.00,,,0.13,Wunderground v.1.13,2013-05-12 10:55:00,
2013-05-12 07:00:00,56.0,54.3,29.66,South,189,0.0,0.0,94,0.00,,,0.13,Wunderground v.1.13,2013-05-12 11:00:00,
2013-05-12 07:05:00,56.0,54.3,29.66,South,189,0.0,0.0,94,0.00,,,0.13,Wunderground v.1.13,2013-05-12 11:05:00,
2013-05-12 07:15:00,56.0,54.3,29.66,South,189,0.0,0.0,94,0.00,,,0.13,Wunderground v.1.13,2013-05-12 11:15:00,
2013-05-12 07:20:00,56.2,54.5,29.65,South,189,0.0,0.0,94,0.00,,,0.14,Wunderground v.1.13,2013-05-12 11:20:00,
2013-05-12 07:25:00,56.2,54.8,29.65,South,189,0.0,0.0,95,0.00,,,0.14,Wunderground v.1.13,2013-05-12 11:25:00,
2013-05-12 07:30:00,56.3,54.6,29.66,South,189,0.0,0.0,94,0.00,,,0.14,Wunderground v.1.13,2013-05-12 11:30:00,
2013-05-12 07:40:00,55.9,54.2,29.66,South,189,0.0,0.0,94,0.00,,,0.14,Wunderground v.1.13,2013-05-12 11:40:00,
2013-05-12 07:45:00,55.7,54.0,29.67,South,189,0.0,0.0,94,0.00,,,0.14,Wunderground v.1.13,2013-05-12 11:45:00,
2013-05-12 07:55:00,55.4,53.7,29.67,South,189,0.0,0.0,94,0.00,,,0.14,Wunderground v.1.13,2013-05-12 11:55:00,
2013-05-12 08:00:00,55.3,53.6,29.67,South,189,0.0,0.0,94,0.00,,,0.14,Wunderground v.1.13,2013-05-12 12:00:00,
2013-05-12 08:05:00,55.1,53.4,29.67,South,189,0.0,0.0,94,0.00,,,0.14,Wunderground v.1.13,2013-05-12 12:05:00,
2013-05-12 08:15:00,55.0,53.0,29.66,South,189,0.0,0.0,93,0.00,,,0.14,Wunderground v.1.13,2013-05-12 12:15:00,
2013-05-12 08:20:00,54.7,52.7,29.66,South,189,0.0,0.0,93,0.00,,,0.14,Wunderground v.1.13,2013-05-12 12:20:00,
2013-05-12 08:25:00,54.8,52.8,29.66,South,189,0.0,0.0,93,0.00,,,0.14,Wunderground v.1.13,2013-05-12 12:25:00,
2013-05-12 08:35:00,55.1,52.8,29.66,South,189,0.0,0.0,92,0.00,,,0.14,Wunderground v.1.13,2013-05-12 12:35:00,
2013-05-12 08:40:00,55.3,53.0,29.66,South,189,0.0,0.0,92,0.00,,,0.14,Wunderground v.1.13,2013-05-12 12:40:00,
2013-05-12 08:45:00,55.9,53.3,29.66,South,189,0.0,0.0,91,0.00,,,0.14,Wunderground v.1.13,2013-05-12 12:45:00,
2013-05-12 08:55:00,56.6,52.5,29.66,West,270,0.0,0.0,86,0.00,,,0.14,Wunderground v.1.13,2013-05-12 12:55:00,
2013-05-12 09:00:00,56.6,51.5,29.66,SSW,208,0.0,0.0,83,0.00,,,0.14,Wunderground v.1.13,2013-05-12 13:00:00,
2013-05-12 09:05:00,56.7,50.9,29.66,SSW,210,0.0,0.0,81,0.00,,,0.14,Wunderground v.1.13,2013-05-12 13:05:00,
2013-05-12 09:15:00,57.2,50.4,29.66,SW,217,0.0,0.0,78,0.00,,,0.14,Wunderground v.1.13,2013-05-12 13:15:00,
2013-05-12 09:20:00,57.3,49.4,29.66,SW,232,0.0,1.0,75,0.00,,,0.14,Wunderground v.1.13,2013-05-12 13:20:00,
2013-05-12 09:25:00,57.6,49.7,29.66,SW,232,0.0,0.0,75,0.00,,,0.14,Wunderground v.1.13,2013-05-12 13:25:00,
2013-05-12 09:30:00,57.8,49.6,29.66,SW,232,0.0,1.0,74,0.00,,,0.14,Wunderground v.1.13,2013-05-12 13:30:00,
2013-05-12 09:40:00,58.6,50.3,29.66,SW,232,0.0,0.0,74,0.00,,,0.14,Wunderground v.1.13,2013-05-12 13:40:00,
2013-05-12 09:45:00,58.9,49.9,29.65,SW,233,0.0,0.0,72,0.00,,,0.14,Wunderground v.1.13,2013-05-12 13:45:00,
2013-05-12 09:55:00,59.6,50.2,29.65,SW,233,0.0,2.0,71,0.00,,,0.14,Wunderground v.1.13,2013-05-12 13:55:00,
2013-05-12 10:00:00,59.9,50.1,29.65,SW,234,0.0,0.0,70,0.00,,,0.14,Wunderground v.1.13,2013-05-12 14:00:00,
2013-05-12 10:10:00,61.3,50.6,29.65,NW,316,0.0,0.0,68,0.00,,,0.14,Wunderground v.1.13,2013-05-12 14:10:00,
2013-05-12 10:15:00,61.8,51.1,29.65,NW,316,0.0,0.0,68,0.00,,,0.14,Wunderground v.1.13,2013-05-12 14:15:00,
2013-05-12 10:20:00,62.1,51.0,29.65,WNW,282,0.0,1.0,67,0.00,,,0.14,Wunderground v.1.13,2013-05-12 14:20:00,
2013-05-12 10:25:00,62.0,49.7,29.65,WNW,282,1.0,1.0,64,0.00,,,0.14,Wunderground v.1.13,2013-05-12 14:25:00,
2013-05-12 10:30:00,62.0,48.8,29.65,WNW,282,1.0,1.0,62,0.00,,,0.14,Wunderground v.1.13,2013-05-12 14:30:00,
2013-05-12 10:40:00,62.7,49.5,29.65,WNW,282,0.0,0.0,62,0.00,,,0.14,Wunderground v.1.13,2013-05-12 14:40:00,
2013-05-12 10:45:00,63.1,49.9,29.65,WNW,282,0.0,2.0,62,0.00,,,0.14,Wunderground v.1.13,2013-05-12 14:45:00,
2013-05-12 10:50:00,62.7,49.1,29.65,SE,126,1.0,1.0,61,0.00,,,0.14,Wunderground v.1.13,2013-05-12 14:50:00,
2013-05-12 11:00:00,63.5,50.2,29.65,WSW,258,0.0,0.0,62,0.00,,,0.14,Wunderground v.1.13,2013-05-12 15:00:00,
2013-05-12 11:05:00,64.0,49.8,29.64,WSW,258,0.0,0.0,60,0.00,,,0.14,Wunderground v.1.13,2013-05-12 15:05:00,
2013-05-12 11:10:00,64.2,48.2,29.64,WSW,253,0.0,1.0,56,0.00,,,0.14,Wunderground v.1.13,2013-05-12 15:10:00,
2013-05-12 11:15:00,64.3,48.3,29.64,WSW,257,0.0,2.0,56,0.00,,,0.14,Wunderground v.1.13,2013-05-12 15:15:00,
2013-05-12 11:20:00,64.5,48.4,29.64,SSW,213,1.0,2.0,56,0.00,,,0.14,Wunderground v.1.13,2013-05-12 15:20:00,
2013-05-12 11:25:00,65.0,47.4,29.64,SSW,213,1.0,1.0,53,0.00,,,0.14,Wunderground v.1.13,2013-05-12 15:25:00,
2013-05-12 11:30:00,65.2,48.1,29.64,SSW,212,1.0,1.0,54,0.00,,,0.14,Wunderground v.1.13,2013-05-12 15:30:00,
2013-05-12 11:40:00,66.0,46.8,29.64,South,189,0.0,0.0,50,0.00,,,0.14,Wunderground v.1.13,2013-05-12 15:40:00,
2013-05-12 11:45:00,65.6,46.5,29.64,South,189,0.0,1.0,50,0.00,,,0.14,Wunderground v.1.13,2013-05-12 15:45:00,
2013-05-12 11:55:00,65.8,44.4,29.64,South,191,0.0,0.0,46,0.00,,,0.14,Wunderground v.1.13,2013-05-12 15:55:00,
2013-05-12 12:00:00,66.3,44.9,29.63,SSW,206,1.0,1.0,46,0.00,,,0.14,Wunderground v.1.13,2013-05-12 16:00:00,
2013-05-12 12:05:00,66.8,44.8,29.63,North,0,1.0,2.0,45,0.00,,,0.14,Wunderground v.1.13,2013-05-12 16:05:00,
2013-05-12 12:10:00,67.1,45.0,29.63,West,260,1.0,1.0,45,0.00,,,0.14,Wunderground v.1.13,2013-05-12 16:10:00,
2013-05-12 12:15:00,67.1,45.0,29.63,NNW,332,1.0,1.0,45,0.00,,,0.14,Wunderground v.1.13,2013-05-12 16:15:00,
2013-05-12 12:25:00,67.9,45.2,29.63,West,275,0.0,1.0,44,0.00,,,0.14,Wunderground v.1.13,2013-05-12 16:25:00,
2013-05-12 12:30:00,66.8,45.3,29.63,West,261,0.0,2.0,46,0.00,,,0.14,Wunderground v.1.13,2013-05-12 16:30:00,
2013-05-12 12:40:00,66.6,45.2,29.63,WSW,251,0.0,0.0,46,0.00,,,0.14,Wunderground v.1.13,2013-05-12 16:40:00,
2013-05-12 12:45:00,67.3,44.6,29.63,WSW,254,0.0,1.0,44,0.00,,,0.14,Wunderground v.1.13,2013-05-12 16:45:00,
2013-05-12 12:55:00,66.8,44.2,29.63,WSW,254,1.0,1.0,44,0.00,,,0.14,Wunderground v.1.13,2013-05-12 16:55:00,
2013-05-12 13:00:00,66.6,44.6,29.63,WSW,253,1.0,1.0,45,0.00,,,0.14,Wunderground v.1.13,2013-05-12 17:00:00,
2013-05-12 13:05:00,66.6,44.0,29.63,WSW,240,0.0,0.0,44,0.00,,,0.14,Wunderground v.1.13,2013-05-12 17:05:00,
2013-05-12 13:10:00,66.3,43.7,29.63,WSW,257,1.0,1.0,44,0.00,,,0.14,Wunderground v.1.13,2013-05-12 17:10:00,
2013-05-12 13:20:00,65.2,43.3,29.63,SW,223,2.0,2.0,45,0.00,,,0.14,Wunderground v.1.13,2013-05-12 17:20:00,
2013-05-12 13:25:00,65.5,43.6,29.63,WSW,258,2.0,2.0,45,0.00,,,0.14,Wunderground v.1.13,2013-05-12 17:25:00,
2013-05-12 13:30:00,65.6,41.9,29.64,West,268,3.0,5.0,42,0.00,,,0.14,Wunderground v.1.13,2013-05-12 17:30:00,
2013-05-12 13:40:00,65.8,42.7,29.64,WSW,248,1.0,2.0,43,0.00,,,0.14,Wunderground v.1.13,2013-05-12 17:40:00,
2013-05-12 13:45:00,65.6,43.1,29.63,WSW,254,2.0,2.0,44,0.00,,,0.14,Wunderground v.1.13,2013-05-12 17:45:00,
2013-05-12 13:50:00,66.0,39.0,29.63,WSW,244,3.0,3.0,37,0.00,,,0.14,Wunderground v.1.13,2013-05-12 17:50:00,
2013-05-12 14:00:00,67.4,38.0,29.63,WSW,250,3.0,3.0,34,0.00,,,0.14,Wunderground v.1.13,2013-05-12 18:00:00,
2013-05-12 14:05:00,67.4,39.5,29.64,WSW,258,4.0,5.0,36,0.00,,,0.14,Wunderground v.1.13,2013-05-12 18:05:00,
2013-05-12 14:10:00,67.8,41.3,29.64,SSW,210,3.0,3.0,38,0.00,,,0.14,Wunderground v.1.13,2013-05-12 18:10:00,
2013-05-12 14:20:00,67.3,41.5,29.64,West,260,2.0,2.0,39,0.00,,,0.14,Wunderground v.1.13,2013-05-12 18:20:00,
2013-05-12 14:25:00,66.0,42.2,29.64,WSW,237,2.0,4.0,42,0.00,,,0.14,Wunderground v.1.13,2013-05-12 18:25:00,
2013-05-12 14:30:00,65.2,43.3,29.64,WSW,237,2.0,2.0,45,0.00,,,0.14,Wunderground v.1.13,2013-05-12 18:30:00,
2013-05-12 14:40:00,65.6,43.7,29.64,West,268,1.0,3.0,45,0.00,,,0.14,Wunderground v.1.13,2013-05-12 18:40:00,
2013-05-12 14:45:00,65.6,41.9,29.64,WNW,292,1.0,1.0,42,0.00,,,0.14,Wunderground v.1.13,2013-05-12 18:45:00,
2013-05-12 14:55:00,65.2,41.5,29.64,WNW,282,1.0,1.0,42,0.00,,,0.14,Wunderground v.1.13,2013-05-12 18:55:00,
2013-05-12 15:00:00,65.2,40.9,29.63,WNW,282,1.0,1.0,41,0.00,,,0.14,Wunderground v.1.13,2013-05-12 19:00:00,
2013-05-12 15:05:00,64.8,42.4,29.63,WNW,282,1.0,1.0,44,0.00,,,0.14,Wunderground v.1.13,2013-05-12 19:05:00,
2013-05-12 15:15:00,64.8,41.2,29.63,WNW,288,1.0,1.0,42,0.00,,,0.14,Wunderground v.1.13,2013-05-12 19:15:00,
2013-05-12 15:20:00,64.5,41.5,29.64,WSW,258,1.0,3.0,43,0.00,,,0.14,Wunderground v.1.13,2013-05-12 19:20:00,
2013-05-12 15:25:00,64.7,39.2,29.64,West,280,1.0,2.0,39,0.00,,,0.14,Wunderground v.1.13,2013-05-12 19:25:00,
2013-05-12 15:35:00,65.6,39.3,29.64,West,270,2.0,2.0,38,0.00,,,0.14,Wunderground v.1.13,2013-05-12 19:35:00,
2013-05-12 15:40:00,65.8,40.8,29.64,West,268,2.0,2.0,40,0.00,,,0.14,Wunderground v.1.13,2013-05-12 19:40:00,
2013-05-12 15:45:00,65.8,37.4,29.64,West,260,3.0,6.0,35,0.00,,,0.14,Wunderground v.1.13,2013-05-12 19:45:00,
2013-05-12 15:55:00,65.6,34.9,29.64,West,275,3.0,4.0,32,0.00,,,0.14,Wunderground v.1.13,2013-05-12 19:55:00,
2013-05-12 16:00:00,65.6,35.7,29.65,West,270,2.0,2.0,33,0.00,,,0.14,Wunderground v.1.13,2013-05-12 20:00:00,
2013-05-12 16:05:00,65.0,35.9,29.65,WSW,253,2.0,2.0,34,0.00,,,0.14,Wunderground v.1.13,2013-05-12 20:05:00,
2013-05-12 16:15:00,65.2,35.4,29.65,WNW,291,2.0,2.0,33,0.00,,,0.14,Wunderground v.1.13,2013-05-12 20:15:00,
2013-05-12 16:20:00,65.6,31.6,29.65,SSW,209,1.0,1.0,28,0.00,,,0.14,Wunderground v.1.13,2013-05-12 20:20:00,
2013-05-12 16:25:00,65.2,30.3,29.65,West,264,3.0,3.0,27,0.00,,,0.14,Wunderground v.1.13,2013-05-12 20:25:00,
2013-05-12 16:30:00,65.3,30.4,29.65,West,261,3.0,3.0,27,0.00,,,0.14,Wunderground v.1.13,2013-05-12 20:30:00,
2013-05-12 16:40:00,65.3,30.4,29.65,West,264,2.0,2.0,27,0.00,,,0.14,Wunderground v.1.13,2013-05-12 20:40:00,
2013-05-12 16:45:00,65.5,31.5,29.65,West,268,1.0,1.0,28,0.00,,,0.14,Wunderground v.1.13,2013-05-12 20:45:00,
2013-05-12 16:55:00,65.2,29.4,29.65,West,275,3.0,3.0,26,0.00,,,0.14,Wunderground v.1.13,2013-05-12 20:55:00,
2013-05-12 17:00:00,65.3,29.5,29.66,WNW,299,2.0,2.0,26,0.00,,,0.14,Wunderground v.1.13,2013-05-12 21:00:00,
2013-05-12 17:05:00,65.0,28.3,29.66,West,265,2.0,2.0,25,0.00,,,0.14,Wunderground v.1.13,2013-05-12 21:05:00,
2013-05-12 17:15:00,65.0,27.3,29.66,WNW,284,1.0,3.0,24,0.00,,,0.14,Wunderground v.1.13,2013-05-12 21:15:00,
2013-05-12 17:20:00,64.5,27.9,29.67,West,278,2.0,2.0,25,0.00,,,0.14,Wunderground v.1.13,2013-05-12 21:20:00,
2013-05-12 17:25:00,64.3,28.7,29.67,North,352,2.0,2.0,26,0.00,,,0.14,Wunderground v.1.13,2013-05-12 21:25:00,
2013-05-12 17:35:00,63.2,26.8,29.68,WSW,256,2.0,3.0,25,0.00,,,0.14,Wunderground v.1.13,2013-05-12 21:35:00,
2013-05-12 17:40:00,63.2,26.8,29.68,West,270,3.0,3.0,25,0.00,,,0.14,Wunderground v.1.13,2013-05-12 21:40:00,
2013-05-12 17:45:00,63.2,26.8,29.69,West,274,2.0,2.0,25,0.00,,,0.14,Wunderground v.1.13,2013-05-12 21:45:00,
2013-05-12 17:55:00,62.3,26.9,29.69,SW,230,2.0,2.0,26,0.00,,,0.14,Wunderground v.1.13,2013-05-12 21:55:00,
2013-05-12 18:00:00,61.8,27.4,29.70,NW,325,1.0,1.0,27,0.00,,,0.14,Wunderground v.1.13,2013-05-12 22:00:00,
2013-05-12 18:05:00,61.5,27.2,29.70,West,271,1.0,1.0,27,0.00,,,0.14,Wunderground v.1.13,2013-05-12 22:05:00,
2013-05-12 18:15:00,61.0,26.7,29.70,WNW,292,1.0,1.0,27,0.00,,,0.14,Wunderground v.1.13,2013-05-12 22:15:00,
2013-05-12 18:20:00,60.9,26.7,29.70,NW,309,1.0,1.0,27,0.00,,,0.14,Wunderground v.1.13,2013-05-12 22:20:00,
2013-05-12 18:25:00,60.7,27.4,29.70,NW,308,0.0,3.0,28,0.00,,,0.14,Wunderground v.1.13,2013-05-12 22:25:00,
2013-05-12 18:30:00,60.5,27.2,29.71,West,270,0.0,2.0,28,0.00,,,0.14,Wunderground v.1.13,2013-05-12 22:30:00,
2013-05-12 18:40:00,60.2,26.9,29.71,West,263,1.0,5.0,28,0.00,,,0.14,Wunderground v.1.13,2013-05-12 22:40:00,
2013-05-12 18:45:00,60.1,26.9,29.72,WSW,251,2.0,3.0,28,0.00,,,0.14,Wunderground v.1.13,2013-05-12 22:45:00,
2013-05-12 18:50:00,59.9,25.8,29.72,SW,236,2.0,2.0,27,0.00,,,0.14,Wunderground v.1.13,2013-05-12 22:50:00,
2013-05-12 19:00:00,59.8,26.6,29.72,SW,224,1.0,1.0,28,0.00,,,0.14,Wunderground v.1.13,2013-05-12 23:00:00,
2013-05-12 19:05:00,59.8,25.7,29.73,SW,224,0.0,0.0,27,0.00,,,0.14,Wunderground v.1.13,2013-05-12 23:05:00,
2013-05-12 19:10:00,59.8,26.6,29.73,West,271,1.0,1.0,28,0.00,,,0.14,Wunderground v.1.13,2013-05-12 23:10:00,
2013-05-12 19:20:00,59.8,25.7,29.73,West,271,1.0,1.0,27,0.00,,,0.14,Wunderground v.1.13,2013-05-12 23:20:00,
2013-05-12 19:25:00,59.6,27.3,29.73,West,268,1.0,1.0,29,0.00,,,0.14,Wunderground v.1.13,2013-05-12 23:25:00,
2013-05-12 19:30:00,59.3,27.0,29.74,West,274,1.0,1.0,29,0.00,,,0.14,Wunderground v.1.13,2013-05-12 23:30:00,
2013-05-12 19:40:00,59.0,26.8,29.74,WSW,241,1.0,1.0,29,0.00,,,0.14,Wunderground v.1.13,2013-05-12 23:40:00,
2013-05-12 19:45:00,58.9,26.7,29.75,West,261,1.0,3.0,29,0.00,,,0.14,Wunderground v.1.13,2013-05-12 23:45:00,
2013-05-12 19:50:00,58.7,25.6,29.75,West,264,1.0,2.0,28,0.00,,,0.14,Wunderground v.1.13,2013-05-12 23:50:00,
2013-05-12 20:00:00,58.3,25.3,29.75,West,268,2.0,4.0,28,0.00,,,0.14,Wunderground v.1.13,2013-05-13 00:00:00,
2013-05-12 20:05:00,58.1,26.0,29.76,West,268,1.0,1.0,29,0.00,,,0.14,Wunderground v.1.13,2013-05-13 00:05:00,
2013-05-12 20:10:00,58.0,26.7,29.76,West,261,1.0,6.0,30,0.00,,,0.14,Wunderground v.1.13,2013-05-13 00:10:00,
2013-05-12 20:20:00,57.3,23.6,29.77,West,280,2.0,2.0,27,0.00,,,0.14,Wunderground v.1.13,2013-05-13 00:20:00,
2013-05-12 20:25:00,57.3,24.4,29.77,WNW,299,1.0,1.0,28,0.00,,,0.14,Wunderground v.1.13,2013-05-13 00:25:00,
2013-05-12 20:30:00,57.0,25.0,29.78,West,278,1.0,1.0,29,0.00,,,0.14,Wunderground v.1.13,2013-05-13 00:30:00,
2013-05-12 20:40:00,56.6,24.7,29.78,WNW,285,1.0,1.0,29,0.00,,,0.14,Wunderground v.1.13,2013-05-13 00:40:00,
2013-05-12 20:45:00,56.5,25.4,29.79,West,268,2.0,3.0,30,0.00,,,0.14,Wunderground v.1.13,2013-05-13 00:45:00,
2013-05-12 20:55:00,56.2,26.7,29.79,WSW,256,1.0,1.0,32,0.00,,,0.14,Wunderground v.1.13,2013-05-13 00:55:00,
2013-05-12 21:00:00,56.0,27.3,29.80,WSW,257,1.0,1.0,33,0.00,,,0.14,Wunderground v.1.13,2013-05-13 01:00:00,
2013-05-12 21:10:00,55.7,27.7,29.80,West,263,2.0,2.0,34,0.00,,,0.14,Wunderground v.1.13,2013-05-13 01:10:00,
2013-05-12 21:15:00,55.6,29.0,29.81,SSW,192,2.0,2.0,36,0.00,,,0.14,Wunderground v.1.13,2013-05-13 01:15:00,
2013-05-12 21:20:00,55.4,29.5,29.81,WNW,285,1.0,1.0,37,0.00,,,0.14,Wunderground v.1.13,2013-05-13 01:20:00,
2013-05-12 21:25:00,55.0,29.8,29.81,West,267,1.0,2.0,38,0.00,,,0.14,Wunderground v.1.13,2013-05-13 01:25:00,
2013-05-12 21:35:00,54.7,28.9,29.82,West,267,1.0,1.0,37,0.00,,,0.14,Wunderground v.1.13,2013-05-13 01:35:00,
2013-05-12 21:45:00,54.4,28.0,29.82,West,267,0.0,0.0,36,0.00,,,0.14,Wunderground v.1.13,2013-05-13 01:45:00,
2013-05-12 21:50:00,54.2,26.4,29.83,NW,313,1.0,1.0,34,0.00,,,0.14,Wunderground v.1.13,2013-05-13 01:50:00,
2013-05-12 21:55:00,54.2,27.1,29.83,West,271,1.0,1.0,35,0.00,,,0.14,Wunderground v.1.13,2013-05-13 01:55:00,
2013-05-12 22:00:00,53.9,26.1,29.84,West,272,2.0,7.0,34,0.00,,,0.14,Wunderground v.1.13,2013-05-13 02:00:00,
2013-05-12 22:10:00,53.6,26.6,29.84,West,265,2.0,5.0,35,0.00,,,0.14,Wunderground v.1.13,2013-05-13 02:10:00,
2013-05-12 22:15:00,53.5,26.5,29.85,NNE,17,2.0,5.0,35,0.00,,,0.14,Wunderground v.1.13,2013-05-13 02:15:00,
2013-05-12 22:25:00,53.2,27.6,29.85,West,274,1.0,1.0,37,0.00,,,0.14,Wunderground v.1.13,2013-05-13 02:25:00,
2013-05-12 22:30:00,52.9,26.6,29.85,West,260,1.0,1.0,36,0.00,,,0.14,Wunderground v.1.13,2013-05-13 02:30:00,
2013-05-12 22:35:00,52.9,26.6,29.85,WSW,247,2.0,2.0,36,0.00,,,0.14,Wunderground v.1.13,2013-05-13 02:35:00,
2013-05-12 22:40:00,52.8,27.2,29.85,West,265,2.0,2.0,37,0.00,,,0.14,Wunderground v.1.13,2013-05-13 02:40:00,
2013-05-12 22:45:00,52.5,27.6,29.86,West,268,0.0,3.0,38,0.00,,,0.14,Wunderground v.1.13,2013-05-13 02:45:00,
2013-05-12 22:55:00,52.3,28.1,29.86,West,264,2.0,2.0,39,0.00,,,0.14,Wunderground v.1.13,2013-05-13 02:55:00,
2013-05-12 23:00:00,52.2,28.6,29.87,WSW,241,1.0,3.0,40,0.00,,,0.14,Wunderground v.1.13,2013-05-13 03:00:00,
2013-05-12 23:05:00,51.9,28.9,29.87,WSW,250,1.0,1.0,41,0.00,,,0.14,Wunderground v.1.13,2013-05-13 03:05:00,
2013-05-12 23:10:00,51.7,29.3,29.87,WSW,250,1.0,1.0,42,0.00,,,0.14,Wunderground v.1.13,2013-05-13 03:10:00,
2013-05-12 23:15:00,51.4,29.1,29.87,SW,236,0.0,0.0,42,0.00,,,0.14,Wunderground v.1.13,2013-05-13 03:15:00,
2013-05-12 23:25:00,51.0,29.8,29.87,WSW,250,1.0,1.0,44,0.00,,,0.14,Wunderground v.1.13,2013-05-13 03:25:00,
2013-05-12 23:30:00,50.8,29.6,29.87,WSW,250,0.0,0.0,44,0.00,,,0.14,Wunderground v.1.13,2013-05-13 03:30:00,
2013-05-12 23:35:00,50.7,29.6,29.87,WSW,250,0.0,0.0,44,0.00,,,0.14,Wunderground v.1.13,2013-05-13 03:35:00,
2013-05-12 23:45:00,50.5,29.4,29.87,SW,233,1.0,1.0,44,0.00,,,0.14,Wunderground v.1.13,2013-05-13 03:45:00,
2013-05-12 23:50:00,50.4,29.8,29.88,North,0,1.0,1.0,45,0.00,,,0.14,Wunderground v.1.13,2013-05-13 03:50:00,
2013-05-12 23:55:00,50.4,29.8,29.88,SSW,202,1.0,1.0,45,0.00,,,0.14,Wunderground v.1.13,2013-05-13 03:55:00,